Location: Red Bud (historical)
(37.7759°N, 88.4053°W)
Time: 00:13:41
(UTC+00:00)

SAR-Lupe-1 - Pass Details

Date: 29 October 2020
Orbit: 480 x 485 km, 98.2° (Epoch: 22 November)

Event Time Altitude Azimuth Distance (km) Brightness Sun altitude
Rises 23:41:35 0° 15° (NNE) 2,550 7.5 -9.3°
Reaches altitude 10° 23:43:39 10° 17° (NNE) 1,667 6.5 -9.7°
Maximum altitude 23:47:13 71° 102° (ESE) 515 4.0 -10.4°
Drops below altitude 10° 23:50:46 10° 187° (S) 1,656 7.0 -11.1°
Sets 23:52:50 0° 189° (S) 2,532 8.0 -11.5°
